Header for Extended Forecast Station List Page

Search by: ID | Name | Date | Parm | Value | Avg | % Avg
Sort by: ID | Name | Date | Parm | Value | Avg | % Avg

Enter search or view all records.

Click on id for station plot
#IDNameDateParmValueAvg% Avg
0ABOM8CLARK FORK-ABOVE MISSOULA01-23-2023DISCHARGE (KAF)52472472
1AFRI1SNAKE-AMERICAN FALLS RESERVOIR01-23-2023INFLOW (KAF)16391497109
2ALFW1PEND OREILLE-ALBENI FALLS DAM01-23-2023INFLOW (KAF)4478638270
3ALPW4SNAKE-NEAR ALPINE01-23-2023DISCHARGE (KAF)53072273
4ANAW1SNAKE-NEAR ANATONE01-23-2023DISCHARGE (KAF)6349896071
5ANTI1HENRYS FORK-AT ST. ANTHONY01-23-2023DISCHARGE (KAF)43450186
6ARAI1SF BOISE-ANDERSON RANCH DAM01-23-2023INFLOW (KAF)272260105
7ARDW1ENTIAT-NEAR ARDENVOIR01-23-2023DISCHARGE (KAF)497764
8BELM8CLARK FORK-BELOW MISSOULA01-23-2023DISCHARGE (KAF)772127760
9BERO3MALHEUR-AGENCY VALLEY DAM01-23-2023INFLOW (KAF)4747100
10BFEI1KOOTENAI-AT BONNERS FERRY01-23-2023STAGE (FT)MMM
11BFTI1SNAKE-NEAR BLACKFOOT01-23-2023DISCHARGE (KAF)1000846118
12BIGI1BOISE-AT GLENWOOD BRIDGE01-23-2023DISCHARGE (KAF)310153202
13BITM8BITTERROOT-NEAR MISSOULA01-23-2023DISCHARGE (KAF)24752547
14BONM8BLACKFOOT-NEAR BONNER01-23-2023DISCHARGE (KAF)32640481
15BONO3COLUMBIA-BONNEVILLE DAM01-23-2023INFLOW (KAF)346184850771
16BRNI1SNAKE-BROWNLEE DAM01-23-2023INFLOW (KAF)3797407193
17BUDW1BUMPING-BUMPING LAKE DAM01-23-2023INFLOW (KAF)6768100
18BULO3BULLY CREEK-BULLY CREEK DAM01-23-2023INFLOW (KAF)535992
19CABI1CLARK FORK-CABINET GORGE DAM01-23-2023INFLOW (KAF)3427540663
20CFMM8FLATHEAD-AT COLUMBIA FALLS01-23-2023DISCHARGE (KAF)1645217776
21CHDW1CHELAN-LAKE CHELAN DAM01-23-2023INFLOW (KAF)29746963
22CHEI1FALL RIVER-NEAR CHESTER01-23-2023DISCHARGE (KAF)17020284
23CHJW1COLUMBIA-CHIEF JOSEPH DAM01-23-2023INFLOW (KAF)180532571970
24CIBW1COLUMBIA-AT INTL BOUNDARY01-23-2023DISCHARGE (KAF)141302007470
25CLFW1NACHES-NEAR CLIFFDEL01-23-2023DISCHARGE (KAF)20525082
26CLUW1CLE ELUM-CLE ELUM LAKE01-23-2023INFLOW (KAF)232230101
27COEI1COEUR D ALENE-COEUR D ALENE LAKE01-23-2023INFLOW (KAF)2122239189
28CSDI1NF PAYETTE-CASCADE DAM01-23-2023INFLOW (KAF)22729278
29DEDI1DEADWOOD-NEAR LOWMAN01-23-2023INFLOW (KAF)546484
30DLGM8CLARK FORK-AT DEER LODGE01-23-2023DISCHARGE (KAF)426070
31DRMM8CLARK FORK-NR DRUMMOND01-23-2023DISCHARGE (KAF)11916572
32DWRI1NF CLEARWATER-DWORSHAK DAM01-23-2023INFLOW (KAF)18641867100
33EASW1YAKIMA-AT EASTON01-23-2023DISCHARGE (KAF)849984
34EMMI1PAYETTE-NEAR EMMETT01-23-2023DISCHARGE (KAF)59576877
35FCFM8NF FLATHEAD-NEAR COLUMBIA FALLS01-23-2023DISCHARGE (KAF)36766056
36GCDW1COLUMBIA-GRAND COULEE DAM01-23-2023INFLOW (KAF)170842346173
37GIBO3UMATILLA-NEAR GIBBON01-23-2023DISCHARGE (KAF)869096
38HALI1BIG WOOD-AT HAILEY01-23-2023DISCHARGE (KAF)569062
39HEII1SNAKE-NEAR HEISE01-23-2023DISCHARGE (KAF)12161140107
40HHWM8SF FLATHEAD-HUNGRY HORSE DAM01-23-2023INFLOW (KAF)70989579
41HODO3HOOD-NEAR TUCKER BRIDGE01-23-2023DISCHARGE (KAF)280268105
42HOPI1PEND OREILLE-PEND OREILLE LAKE NR HOPE01-23-2023LAKE ELEVATION (FT)MMM
43HOTI1BRUNEAU-NEAR HOT SPRINGS01-23-2023DISCHARGE (KAF)6810267
44HWRI1BIG LOST-AT HOWELL RANCH NEAR CHILLY01-23-2023DISCHARGE (KAF)264263
45IHDW1SNAKE-ICE HARBOR DAM01-23-2023INFLOW (KAF)105511405575
46IPDI1HENRYS FORK-ISLAND PARK DAM01-23-2023INFLOW (KAF)11514182
47JDAO3COLUMBIA-JOHN DAY DAM01-23-2023INFLOW (KAF)330284595072
48JKSW4SNAKE-NEAR JACKSON01-23-2023DISCHARGE (KAF)39655671
49JLKW4SNAKE-JACKSON LAKE AT DAM01-23-2023INFLOW (KAF)25430384
50KADW1KACHESS-KACHESS DAM01-23-2023INFLOW (KAF)8884105
51KEDW1YAKIMA-KEECHELUS LAKE01-23-2023INFLOW (KAF)10088113
52KERM8FLATHEAD-SELI’Š KSANKA QLISPE’ DAM01-23-2023INFLOW (KAF)1852278666
53KIOW1YAKIMA-AT KIONA01-23-2023DISCHARGE (KAF)767101076
54LAUW1KETTLE-AT LAURIER01-23-2023DISCHARGE (KAF)57597259
55LEOI1KOOTENAI-AT LEONIA01-23-2023DISCHARGE (KAF)25442352108
56LGDW1SNAKE-LOWER GRANITE DAM01-23-2023INFLOW (KAF)102401381674
57LGSW1SNAKE-LITTLE GOOSE DAM01-23-2023INFLOW (KAF)102431386574
58LLKW1SPOKANE-AT LONGLAKE01-23-2023INFLOW (KAF)2274275683
59LMNW1SNAKE-LOWER MONUMENTAL DAM01-23-2023INFLOW (KAF)105441403975
60LUCI1BOISE-LUCKY PEAK DAM01-23-2023INFLOW (KAF)780655119
61LWRI1LITTLE WOOD-LITTLE WOOD DAM01-23-2023INFLOW (KAF)4837130
62LYDM8KOOTENAI-LIBBY DAM01-23-2023INFLOW (KAF)1386192472
63MACI1BIG LOST-MACKAY RESERVOIR NEAR MACKAY01-23-2023INFLOW (KAF)314078
64MAGI1BIG WOOD-MAGIC DAM01-23-2023INFLOW (KAF)8010675
65MCDW1COLUMBIA-MCNARY DAM01-23-2023INFLOW (KAF)310514384771
66MILI1SNAKE-AT MILNER01-23-2023DISCHARGE (KAF)485488
67MODO3DESCHUTES-AT MOODY NR BIGGS01-23-2023DISCHARGE (KAF)14961465102
68MONO3NF JOHN DAY-AT MONUMENT01-23-2023DISCHARGE (KAF)41054176
69MYKO3MCKAY CREEK-NEAR PILOT ROCK01-23-2023DISCHARGE (KAF)344478
70NACW1NACHES-NEAR NACHES01-23-2023DISCHARGE (KAF)28435979
71NOXM8CLARK FORK-NOXON RAPIDS DAM01-23-2023INFLOW (KAF)3072473765
72ORFI1CLEARWATER-AT OROFINO01-23-2023DISCHARGE (KAF)2382277586
73OWYO3OWYHEE-OWYHEE DAM01-23-2023INFLOW (KAF)471254185
74PARI1BOISE-NEAR PARMA01-23-2023DISCHARGE (KAF)379230164
75PARW1YAKIMA-NEAR PARKER01-23-2023DISCHARGE (KAF)48769470
76PATW1METHOW-NEAR PATEROS01-23-2023DISCHARGE (KAF)24339162
77PDTO3UMATILLA-AT PENDLETON01-23-2023DISCHARGE (KAF)19920398
78PESW1WENATCHEE-AT PESHASTIN01-23-2023DISCHARGE (KAF)55872277
79PIHI1PORTNEUF-AT POCATELLO01-23-2023DISCHARGE (KAF)737399
80PITW1KLICKITAT-NEAR PITT01-23-2023DISCHARGE (KAF)47949397
81PLDI1SF SNAKE-PALISADES DAM01-23-2023INFLOW (KAF)925119677
82PRTI1PRIEST-NEAR PRIEST RIVER01-23-2023DISCHARGE (KAF)42951883
83PRWW1COLUMBIA-PRIEST RAPIDS DAM01-23-2023INFLOW (KAF)195922862668
84RCCM8ROCK CREEK-NEAR CLINTON01-23-2023DISCHARGE (KAF)6011453
85REXI1HENRYS FORK-AT REXBURG01-23-2023DISCHARGE (KAF)46554785
86RIDI1WILLOW CREEK-RIRIE DAM01-23-2023INFLOW (KAF)3734109
87RILW1TIETON-RIMROCK LAKE NEAR RIMROCK01-23-2023INFLOW (KAF)10711990
88RRHW1COLUMBIA-ROCKY REACH DAM01-23-2023INFLOW (KAF)190472762669
89SATI1ST MARIES-NEAR SANTA01-23-2023DISCHARGE (KAF)138133104
90SERO3JOHN DAY-AT SERVICE CK01-23-2023DISCHARGE (KAF)57777874
91SHYI1SNAKE-NEAR SHELLEY01-23-2023DISCHARGE (KAF)11991118107
92SIFI1SNAKE-AB EAGLE ROCK NR IDAHO FALLS01-23-2023DISCHARGE (KAF)12691158110
93SJMI1ST JOE-AT ST MARIES01-23-2023STAGE (FT)MMM
94SNAI1SNAKE-AT BLACKFOOT01-23-2023DISCHARGE (KAF)1017849120
95SPDI1CLEARWATER-AT SPALDING01-23-2023DISCHARGE (KAF)3889448887
96SPOW1SPOKANE-AT SPOKANE01-23-2023DISCHARGE (KAF)1936242180
97SRGM8CLARK FORK-AT ST REGIS01-23-2023DISCHARGE (KAF)1035171760
98STRM8ST. REGIS-NEAR ST. REGIS01-23-2023DISCHARGE (KAF)12017369
99SWAI1SNAKE-BELOW SWAN FALLS01-23-2023DISCHARGE (KAF)1767189593
100TCHW1WALLA WALLA-NEAR TOUCHET01-23-2023DISCHARGE (KAF)233231101
101TDAO3COLUMBIA-THE DALLES DAM01-23-2023INFLOW (KAF)335274645972
102TEAI1TETON-NEAR ST. ANTHONY01-23-2023DISCHARGE (KAF)13116679
103TNAW1TEANAWAY-BELOW FORKS01-23-2023DISCHARGE (KAF)127120106
104TONW1OKANOGAN-NEAR TONASKET01-23-2023DISCHARGE (KAF)43774759
105TRYO3GRANDE RONDE-TROY01-23-2023DISCHARGE (KAF)993105394
106UMAO3UMATILLA-NEAR UMATILLA01-23-2023DISCHARGE (KAF)17118294
107UMTW1YAKIMA-AT UMTANUM01-23-2023DISCHARGE (KAF)48753691
108UNDW1WHITE SALMON-NEAR UNDERWOOD01-23-2023DISCHARGE (KAF)339340100
109WANW1COLUMBIA-WANAPUM DAM01-23-2023INFLOW (KAF)195942855769
110WEII1SNAKE-AT WEISER01-23-2023DISCHARGE (KAF)3399367692
111WELW1COLUMBIA-WELLS DAM01-23-2023INFLOW (KAF)187112705369
112WGCM8MF FLATHEAD-NEAR WEST GLACIER01-23-2023DISCHARGE (KAF)40962865
113WHBI1SALMON-AT WHITEBIRD01-23-2023DISCHARGE (KAF)1756270065
114WRMO3MALHEUR-WARM SPRINGS DAM01-23-2023INFLOW (KAF)697691
115WSRI1WEISER-NEAR WEISER01-23-2023DISCHARGE (KAF)36637598